User: anonymous   Login
Location: Unspecified
(0.0000°N, 0.0000°E)
Time: 12:31:40
(UTC+00:00)
Language:

NOSS 3-3 (A) - Orbit

View from above orbital plane
View from above orbital plane
View from above satellite
View from above satellite

Ground track
Ground track

The orbit data is extracted from the following two-line orbital elements,

1 28537U 05004A   23251.79660217 0.00000040  00000-0  37802-4 0    06
2 28537  63.4120 140.3487 0468916   0.5977 359.4023 13.40897329    04
Epoch (UTC): 08 September 2023 19:07:06
Eccentricity: 0.0468916
inclination: 63.4120°
perigee height: 755 km
apogee height: 1457 km
right ascension of ascending node: 140.3487°
argument of perigee: 0.5977°
revolutions per day: 13.40897329
mean anomaly at epoch: 359.4023°
orbit number at epoch: 0

The dashed part of the orbit path shows where the satellite is in the earth's shadow,  

DLR